Location: Albany
(42.6526°N, 73.7562°W)
Time: 03:52:08
(UTC+00:00)

Cosmos 1680 Rocket - Pass Details

Date: 19 November 2019
Orbit: 759 x 782 km, 74.1° (Epoch: 07 December)

Event Time Altitude Azimuth Distance (km) Brightness Sun altitude
Rises 22:58:38 0° 210° (SSW) 3,208 7.4 -16.4°
Reaches altitude 10° 23:01:02 10° 215° (SW) 2,288 6.6 -16.8°
Maximum altitude 23:06:08 57° 293° (WNW) 903 4.1 -17.7°
Drops below altitude 10° 23:11:18 10° 12° (NNE) 2,316 5.8 -18.7°
Enters shadow 23:12:29 - 15° (NNE) 2,768 6.1 -18.9°
